DW1770 Weather Reports


time (UTC)temp
C
wind
direction
speed
KPH
gust
KPH
rain 1hr
cm
rain 24hr
cm
rain mn
cm
humidity
%
barometer
mb
20260507071602 9 24 1.6 8.0 0.00 0.58 0.00 87 1006.5
20260507071100 9 331 3.2 8.0 0.00 0.58 0.00 87 1006.7
20260507070601 9 355 0.0 11.3 0.00 0.58 0.00 87 1006.6
20260507070101 9 355 3.2 11.3 0.00 0.58 0.00 87 1006.6
20260507065602 10 20 1.6 6.4 0.00 0.58 0.00 87 1006.6
20260507065101 10 291 0.0 4.8 0.00 0.58 0.00 88 1006.9
20260507064603 10 347 1.6 8.0 0.00 0.58 0.00 87 1006.3
20260507064101 10 288 3.2 11.3 0.00 0.58 0.00 87 1006.3
20260507063825 10 319 1.6 11.3 0.00 0.58 0.00 87 1006.4
20260507063324 10 337 1.6 9.7 0.00 0.58 0.00 88 1006.4
20260507062837 10 5 1.6 6.4 0.00 0.58 0.00 87 1006.3
20260507062101 10 352 3.2 6.4 0.00 0.58 0.00 87 1006.0
20260507060602 10 294 0.0 3.2 0.00 0.58 0.00 88 1006.4
20260507060323 10 351 0.0 6.4 0.00 0.58 0.00 87 1006.4
20260507055101 10 286 1.6 4.8 0.00 0.58 0.00 87 1006.7
20260507054602 10 283 1.6 4.8 0.00 0.58 0.00 87 1007.0
20260507054101 10 32 0.0 6.4 0.00 0.58 0.00 86 1007.0
20260507053603 10 334 0.0 6.4 0.00 0.58 0.00 86 1006.7
20260507052602 10 305 3.2 8.0 0.00 0.58 0.00 85 1006.9
20260507052101 10 10 3.2 12.9 0.00 0.58 0.00 85 1006.8
20260507051602 10 348 3.2 12.9 0.00 0.58 0.00 85 1006.8
20260507051101 10 57 1.6 12.9 0.00 0.58 0.00 85 1006.7
20260507050602 10 328 4.8 12.9 0.00 0.58 0.00 84 1006.7
20260507050322 10 310 4.8 12.9 0.00 0.58 0.00 84 1006.8
20260507045602 10 315 6.4 9.7 0.00 0.58 0.00 84 1006.6
20260507045101 10 22 1.6 12.9 0.00 0.58 0.00 85 1006.7
20260507044601 10 337 4.8 12.9 0.00 0.58 0.00 84 1006.7
20260507044323 10 0 4.8 12.9 0.00 0.58 0.00 85 1006.5
20260507043601 10 279 4.8 11.3 0.00 0.58 0.00 77 1006.6
20260507043101 10 343 4.8 12.9 0.03 0.58 0.00 85 1006.9
20260507042601 10 26 3.2 19.3 0.03 0.58 0.00 87 1006.7
20260507042101 10 346 4.8 19.3 0.03 0.58 0.00 87 1006.8
20260507041601 11 22 4.8 14.5 0.03 0.58 0.00 88 1006.9
20260507040602 11 0 4.8 14.5 0.03 0.58 0.00 89 1006.7
20260507040101 11 355 4.8 12.9 0.03 0.58 0.00 82 1006.7
20260507035602 11 38 1.6 9.7 0.05 0.56 0.58 91 1006.3
20260507035324 11 355 1.6 12.9 0.08 0.56 0.58 91 1006.2
20260507034826 11 16 6.4 12.9 0.08 0.56 0.58 91 1006.3
20260507034102 12 13 3.2 12.9 0.08 0.56 0.58 91 1006.3
20260507032824 12 0 0.0 9.7 0.05 0.56 0.56 91 1006.2
20260507032327 12 5 3.2 11.3 0.05 0.56 0.56 91 1006.0
20260507031602 12 0 3.2 14.5 0.05 0.56 0.56 91 1006.0
20260507031102 12 320 4.8 14.5 0.05 0.56 0.56 90 1005.9
20260507030602 13 76 3.2 9.7 0.05 0.56 0.56 91 1005.8
20260507025102 13 29 6.4 14.5 0.00 0.51 0.51 91 1005.8
20260507024602 13 11 4.8 12.9 0.00 0.51 0.51 91 1005.9
20260507023602 13 331 3.2 11.3 0.00 0.51 0.51 92 1005.8
20260507023322 14 265 1.6 11.3 0.00 0.51 0.51 92 1005.6
20260507022602 14 355 4.8 11.3 0.00 0.51 0.51 93 1005.6
20260507022101 14 273 4.8 11.3 0.00 0.51 0.51 93 1005.3
20260507021602 14 291 3.2 6.4 0.00 0.51 0.51 93 1005.2
20260507021101 14 5 1.6 6.4 0.00 0.51 0.51 93 1005.0
20260507020823 14 257 3.2 6.4 0.00 0.51 0.51 93 1005.0
20260507020322 14 263 1.6 9.7 0.00 0.51 0.51 93 1004.9
20260507015602 14 265 3.2 9.7 0.00 0.51 0.51 93 1005.0
20260507015325 14 217 1.6 8.0 0.00 0.51 0.51 93 1005.0
20260507014602 14 206 3.2 8.0 0.00 0.51 0.51 93 1004.9
20260507014101 14 267 3.2 6.4 0.00 0.51 0.51 93 1004.8
20260507013825 14 257 3.2 6.4 0.00 0.51 0.51 93 1004.9
20260507013101 14 267 3.2 8.0 0.00 0.51 0.51 93 1004.9
20260507012602 14 224 1.6 8.0 0.00 0.51 0.51 93 1004.9
20260507012102 14 239 3.2 8.0 0.00 0.51 0.51 93 1005.0
20260507011602 14 227 3.2 8.0 0.00 0.51 0.51 93 1004.9
20260507011333 14 254 3.2 11.3 0.00 0.51 0.51 93 1004.9
20260507010601 14 146 1.6 11.3 0.00 0.51 0.51 93 1005.0
20260507010100 14 246 3.2 8.0 0.00 0.51 0.51 93 1004.8
20260507005602 14 226 3.2 8.0 0.00 0.51 0.51 93 1005.0
20260507005325 14 266 1.6 8.0 0.00 0.51 0.51 93 1004.9
20260507004602 14 248 1.6 9.7 0.00 0.51 0.51 93 1004.9
20260507004101 14 229 3.2 11.3 0.00 0.51 0.51 93 1005.0
20260507003602 14 184 3.2 11.3 0.00 0.51 0.51 93 1004.8
20260507003100 14 190 1.6 14.5 0.00 0.51 0.51 93 1004.6
20260507002601 14 222 1.6 14.5 0.00 0.51 0.51 93 1004.7
20260507002100 14 262 3.2 11.3 0.00 0.51 0.51 93 1004.7
20260507001602 14 213 4.8 11.3 0.00 0.51 0.51 93 1004.8
20260507001100 14 256 3.2 16.1 0.00 0.51 0.51 93 1004.7
20260507000834 14 236 6.4 16.1 0.00 0.51 0.51 93 1004.7
20260506235601 14 227 3.2 8.0 0.00 0.51 0.51 93 1004.6
20260506235323 15 249 3.2 8.0 0.00 0.51 0.51 93 1004.5
20260506234602 15 262 3.2 11.3 0.00 0.51 0.51 93 1004.5
20260506234101 15 203 3.2 11.3 0.00 0.51 0.51 93 1004.4
20260506233603 15 262 3.2 11.3 0.00 0.51 0.51 93 1004.4
20260506233102 15 254 3.2 8.0 0.00 0.51 0.51 93 1004.4
20260506232602 15 243 3.2 6.4 0.00 0.51 0.51 93 1004.5
20260506232101 15 258 3.2 6.4 0.00 0.51 0.51 93 1004.6
20260506231603 15 236 3.2 8.0 0.00 0.51 0.51 93 1004.4
20260506231101 15 269 3.2 12.9 0.00 0.51 0.51 93 1004.6
20260506230603 15 242 3.2 12.9 0.00 0.51 0.51 93 1004.5
20260506225824 15 232 4.8 14.5 0.03 0.48 0.51 93 1004.8
20260506225101 15 216 4.8 14.5 0.03 0.48 0.51 93 1004.8
20260506224602 15 218 3.2 8.0 0.03 0.48 0.51 93 1004.9
20260506224323 15 240 1.6 8.0 0.03 0.48 0.51 93 1004.8
20260506223602 15 225 1.6 8.0 0.03 0.48 0.51 93 1004.8
20260506223101 15 229 1.6 8.0 0.03 0.48 0.51 93 1004.8
20260506222602 15 245 1.6 8.0 0.05 0.48 0.51 93 1004.9
20260506222100 15 265 1.6 11.3 0.08 0.48 0.51 93 1004.9
20260506221602 15 192 3.2 11.3 0.08 0.48 0.51 93 1005.0
20260506221101 15 277 1.6 8.0 0.08 0.48 0.51 93 1004.9
20260506220603 15 236 3.2 12.9 0.08 0.48 0.51 93 1005.0
20260506220101 15 217 4.8 12.9 0.10 0.48 0.48 93 1005.0
20260506215602 15 205 3.2 11.3 0.08 0.41 0.48 93 1005.0
20260506215101 15 200 3.2 12.9 0.08 0.41 0.48 93 1005.0
20260506214602 15 186 4.8 12.9 0.08 0.41 0.48 93 1005.1
20260506214101 15 234 4.8 11.3 0.10 0.41 0.48 93 1005.1
20260506213601 15 190 6.4 14.5 0.10 0.41 0.48 93 1005.1
20260506213101 15 257 4.8 14.5 0.10 0.41 0.46 93 1005.1
20260506212825 15 252 6.4 17.7 0.08 0.41 0.46 93 1005.2
20260506212101 15 246 3.2 17.7 0.05 0.41 0.43 92 1005.3
20260506211602 15 175 3.2 12.9 0.05 0.41 0.43 93 1005.1
20260506211101 15 192 4.8 14.5 0.08 0.41 0.43 93 1005.3
20260506210602 15 222 8.0 14.5 0.08 0.41 0.43 92 1005.4
20260506210101 15 204 3.2 12.9 0.05 0.41 0.41 92 1005.2
20260506205602 15 227 6.4 16.1 0.08 0.36 0.41 92 1005.3
20260506205100 16 223 4.8 16.1 0.08 0.36 0.41 92 1005.5
20260506204829 16 233 4.8 14.5 0.08 0.36 0.41 92 1005.5
20260506204326 16 249 4.8 14.5 0.08 0.36 0.38 92 1005.5
20260506203601 16 219 4.8 14.5 0.08 0.36 0.38 92 1005.5
20260506203101 16 225 4.8 19.3 0.08 0.36 0.38 92 1005.5
20260506202601 16 236 6.4 19.3 0.08 0.36 0.38 92 1005.5
20260506202102 16 281 4.8 16.1 0.08 0.36 0.38 92 1005.5
20260506201602 16 240 3.2 11.3 0.08 0.36 0.38 92 1005.6
20260506201101 16 205 3.2 12.9 0.05 0.36 0.36 92 1005.6
20260506200101 16 243 3.2 12.9 0.05 0.36 0.36 91 1005.7
20260506195827 16 226 3.2 8.0 0.03 0.30 0.33 91 1005.8
20260506194602 16 184 3.2 11.3 0.03 0.30 0.33 91 1005.9
20260506194101 16 255 3.2 11.3 0.03 0.30 0.30 91 1005.8
20260506193102 16 262 3.2 16.1 0.05 0.30 0.30 91 1005.7
20260506192602 16 224 4.8 16.1 0.08 0.30 0.30 91 1005.7
20260506192326 16 274 3.2 14.5 0.08 0.30 0.30 91 1005.6
20260506191603 16 229 4.8 14.5 0.10 0.30 0.30 90 1005.6
20260506191101 16 205 3.2 11.3 0.15 0.30 0.30 90 1005.5
20260506190827 16 225 1.6 8.0 0.18 0.30 0.30 90 1005.6
20260506190101 16 212 3.2 8.0 0.20 0.30 0.30 90 1005.8
20260506185602 16 209 1.6 4.8 0.23 0.10 0.30 90 1005.9
20260506185100 16 234 0.0 4.8 0.23 0.10 0.30 89 1005.9
20260506184603 16 221 3.2 11.3 0.25 0.10 0.28 89 1005.9
20260506184100 16 240 3.2 11.3 0.25 0.10 0.28 89 1006.0
20260506183828 16 228 1.6 6.4 0.23 0.10 0.25 88 1006.3
20260506183102 16 253 3.2 6.4 0.25 0.10 0.25 88 1006.3
20260506182601 16 243 3.2 11.3 0.23 0.10 0.23 87 1006.4
20260506182326 16 275 3.2 11.3 0.23 0.10 0.20 86 1006.5
20260506181602 17 259 1.6 6.4 0.20 0.10 0.18 85 1006.6
20260506181321 17 265 1.6 6.4 0.15 0.10 0.15 84 1006.6
20260506180602 17 261 1.6 6.4 0.13 0.10 0.13 83 1006.6
20260506180321 17 265 3.2 11.3 0.10 0.10 0.10 82 1006.6
20260506175602 17 266 4.8 11.3 0.08 0.00 0.08 80 1006.7
20260506175100 18 259 0.0 8.0 0.08 0.00 0.08 80 1006.8
20260506174602 18 253 1.6 4.8 0.05 0.00 0.05 78 1006.7
20260506174100 18 257 1.6 6.4 0.03 0.00 0.03 75 1006.8
20260506173602 19 227 3.2 11.3 0.03 0.00 0.03 72 1006.8
20260506173101 20 257 3.2 11.3 0.00 0.00 0.00 70 1006.6
20260506172602 20 210 3.2 11.3 0.00 0.00 0.00 59 1006.3
20260506172101 20 182 4.8 11.3 0.00 0.00 0.00 63 1006.2
20260506171602 21 251 3.2 11.3 0.00 0.00 0.00 62 1006.0
20260506171319 21 126 4.8 11.3 0.00 0.00 0.00 62 1006.2
20260506170602 21 259 3.2 12.9 0.00 0.00 0.00 62 1006.2
20260506170100 21 261 4.8 14.5 0.00 0.00 0.00 63 1006.2
20260506165825 21 205 6.4 14.5 0.00 0.00 0.00 62 1006.3
20260506165101 21 233 6.4 12.9 0.00 0.00 0.00 55 1006.3
20260506164603 21 229 6.4 11.3 0.00 0.00 0.00 62 1006.4
20260506164102 21 257 4.8 14.5 0.00 0.00 0.00 63 1006.4
20260506163602 21 267 6.4 16.1 0.00 0.00 0.00 62 1006.4
20260506162824 21 306 4.8 11.3 0.00 0.00 0.00 63 1006.6
20260506162101 21 271 6.4 12.9 0.00 0.00 0.00 63 1006.8
20260506161603 21 208 4.8 12.9 0.00 0.00 0.00 56 1006.8
20260506161327 21 207 4.8 11.3 0.00 0.00 0.00 63 1006.9
20260506160601 21 196 3.2 11.3 0.00 0.00 0.00 65 1007.0
20260506155602 20 220 6.4 20.9 0.00 0.00 0.00 65 1007.4
20260506155325 20 188 4.8 11.3 0.00 0.00 0.00 66 1007.5
20260506154602 20 186 3.2 11.3 0.00 0.00 0.00 66 1007.7
20260506154101 20 186 1.6 14.5 0.00 0.00 0.00 67 1007.7
20260506153602 20 265 4.8 14.5 0.00 0.00 0.00 67 1007.8
20260506153101 20 202 4.8 12.9 0.00 0.00 0.00 66 1007.8
20260506152602 20 199 3.2 11.3 0.00 0.00 0.00 67 1007.9
20260506152330 20 126 3.2 11.3 0.00 0.00 0.00 66 1008.0
20260506151602 20 305 1.6 12.9 0.00 0.00 0.00 59 1008.0
20260506151101 20 143 6.4 12.9 0.00 0.00 0.00 67 1008.0
20260506150602 20 200 3.2 11.3 0.00 0.00 0.00 68 1008.2
20260506150100 20 166 3.2 16.1 0.00 0.00 0.00 68 1007.9
20260506145602 20 170 6.4 16.1 0.00 0.00 0.00 68 1007.9
20260506145101 20 186 3.2 11.3 0.00 0.00 0.00 60 1007.9
20260506144602 20 244 3.2 9.7 0.00 0.00 0.00 70 1008.1
20260506144101 20 272 1.6 11.3 0.00 0.00 0.00 70 1008.0
20260506143602 19 226 6.4 11.3 0.00 0.00 0.00 69 1008.0
20260506143100 19 261 3.2 12.9 0.00 0.00 0.00 70 1007.9
20260506142602 19 276 3.2 16.1 0.00 0.00 0.00 71 1007.9
20260506142100 19 228 4.8 16.1 0.00 0.00 0.00 70 1007.9
20260506141602 19 259 4.8 12.9 0.00 0.00 0.00 70 1007.9
20260506141101 19 205 3.2 11.3 0.00 0.00 0.00 70 1007.9
20260506140828 18 215 6.4 11.3 0.00 0.00 0.00 71 1007.7
20260506140101 18 234 4.8 11.3 0.00 0.00 0.00 71 1007.5
20260506135601 18 139 3.2 11.3 0.00 0.00 0.00 72 1007.6
20260506135101 18 126 4.8 11.3 0.00 0.00 0.00 73 1007.7
20260506134601 18 273 4.8 11.3 0.00 0.00 0.00 73 1007.8
20260506134101 18 252 3.2 11.3 0.00 0.00 0.00 74 1007.8
20260506133822 18 229 3.2 12.9 0.00 0.00 0.00 74 1008.0
20260506133100 18 260 4.8 14.5 0.00 0.00 0.00 74 1007.9
20260506132602 17 263 6.4 17.7 0.00 0.00 0.00 73 1008.0
20260506132101 17 263 8.0 17.7 0.00 0.00 0.00 73 1008.1
20260506131603 17 211 4.8 12.9 0.00 0.00 0.00 74 1008.1
20260506131323 17 259 3.2 12.9 0.00 0.00 0.00 75 1008.2
20260506130825 17 226 3.2 12.9 0.00 0.00 0.00 75 1008.2
20260506125824 17 202 3.2 12.9 0.00 0.00 0.00 75 1008.1
20260506125101 17 212 3.2 12.9 0.00 0.00 0.00 75 1008.2
20260506124826 17 187 4.8 17.7 0.00 0.00 0.00 75 1008.2
20260506124102 17 240 8.0 17.7 0.00 0.00 0.00 75 1008.2
20260506123602 17 280 1.6 14.5 0.00 0.00 0.00 76 1008.3
20260506123100 17 230 6.4 14.5 0.00 0.00 0.00 76 1008.2
20260506122603 16 188 3.2 11.3 0.00 0.00 0.00 77 1008.1
20260506122101 16 180 3.2 9.7 0.00 0.00 0.00 77 1008.1
20260506121603 16 238 3.2 14.5 0.00 0.00 0.00 77 1008.2
20260506121101 16 266 3.2 14.5 0.00 0.00 0.00 77 1008.3
20260506120602 16 199 4.8 11.3 0.00 0.00 0.00 77 1008.4
20260506120329 16 225 3.2 8.0 0.00 0.00 0.00 78 1008.4
20260506115602 16 265 3.2 9.7 0.00 0.00 0.00 78 1008.4
20260506115101 16 219 3.2 9.7 0.00 0.00 0.00 78 1008.5
20260506114602 16 202 4.8 9.7 0.00 0.00 0.00 78 1008.6
20260506114330 16 254 4.8 9.7 0.00 0.00 0.00 78 1008.7
20260506113826 16 205 3.2 9.7 0.00 0.00 0.00 78 1008.6
20260506113101 16 260 3.2 12.9 0.00 0.00 0.00 78 1008.7
20260506112601 16 246 3.2 12.9 0.00 0.00 0.00 78 1008.6
20260506111601 15 252 1.6 20.9 0.00 0.00 0.00 79 1008.8
20260506110601 15 237 3.2 11.3 0.00 0.00 0.00 78 1008.8
20260506110101 15 200 3.2 12.9 0.00 0.00 0.00 79 1008.7
20260506105602 15 196 3.2 12.9 0.00 0.00 0.00 79 1008.7
20260506105102 15 185 1.6 9.7 0.00 0.00 0.00 79 1008.7
20260506104602 15 225 3.2 9.7 0.00 0.00 0.00 79 1008.7
20260506104101 15 257 3.2 11.3 0.00 0.00 0.00 79 1008.6
20260506103329 15 238 3.2 11.3 0.00 0.00 0.00 79 1008.7
20260506102601 15 254 1.6 11.3 0.00 0.00 0.00 79 1008.7
20260506102100 15 232 3.2 9.7 0.00 0.00 0.00 79 1008.5
20260506101824 15 223 3.2 8.0 0.00 0.00 0.00 79 1008.6
20260506100829 15 260 3.2 11.3 0.00 0.00 0.00 78 1008.7
20260506100323 15 267 3.2 11.3 0.00 0.00 0.00 78 1008.5
20260506095601 15 192 1.6 12.9 0.00 0.00 0.00 78 1008.6
20260506095327 15 239 1.6 12.9 0.00 0.00 0.00 78 1008.7
20260506094602 15 242 4.8 8.0 0.00 0.00 0.00 78 1008.6
20260506094101 15 233 3.2 8.0 0.00 0.00 0.00 78 1008.6
20260506093824 15 160 3.2 8.0 0.00 0.00 0.00 78 1008.7
20260506093102 15 230 3.2 6.4 0.00 0.00 0.00 78 1008.7
20260506092602 15 259 1.6 6.4 0.00 0.00 0.00 77 1008.4
20260506092101 15 204 1.6 6.4 0.00 0.00 0.00 77 1008.7
20260506091602 15 240 1.6 8.0 0.00 0.00 0.00 77 1008.8
20260506091330 15 181 1.6 8.0 0.00 0.00 0.00 77 1008.7
20260506090602 15 249 3.2 8.0 0.00 0.00 0.00 76 1008.6
20260506085822 15 211 3.2 8.0 0.00 0.00 0.00 76 1008.7
20260506085101 15 221 3.2 8.0 0.00 0.00 0.00 76 1008.6
20260506084602 15 252 1.6 6.4 0.00 0.00 0.00 76 1008.6
20260506084322 15 257 1.6 6.4 0.00 0.00 0.00 75 1008.8
20260506083602 15 215 1.6 11.3 0.00 0.00 0.00 75 1008.6
20260506083101 15 226 3.2 11.3 0.00 0.00 0.00 75 1008.7
20260506082602 15 224 3.2 8.0 0.00 0.00 0.00 75 1008.7
20260506082101 15 238 1.6 6.4 0.00 0.00 0.00 74 1008.6
20260506081603 15 250 1.6 6.4 0.00 0.00 0.00 74 1008.6
20260506081102 15 226 1.6 11.3 0.00 0.00 0.00 74 1008.6
20260506080604 15 174 1.6 11.3 0.00 0.00 0.00 73 1008.5
20260506073100 16 199 1.6 6.4 0.00 0.00 0.00 71 1008.6
20260506072602 16 193 1.6 8.0 0.00 0.00 0.00 71 1008.5
20260506072100 16 226 1.6 9.7 0.00 0.00 0.00 71 1008.5